Regional Weather Roundup
Issued by NWS

Home | Current Version | Previous Version | Graphics & Text | Print | Product List | Glossary On
Versions: 1 2 3 4 5 6 7 8 9 10 11 12 13 14 15 16 17 18 19 20 21 22 23 24 25 26 27 28 29 30 31 32 33 34 35 36 37 38 39 40 41 42 43 44 45 46 47 48 49 50
000
ASUS43 KDTX 241101
RWRMI
NATIONAL WEATHER SERVICE DETROIT/PONTIAC MI
700 AM EDT FRI OCT 24 2014

NOTE: "FAIR" INDICATES FEW OR NO CLOUDS BELOW 12,000 FEET WITH NO
SIGNIFICANT WEATHER AND/OR OBSTRUCTION TO VISIBILITY.

MIZ047>049-052>055-059>063-066>070-074>076-081>083-241200-
SOUTHEAST LOWER MICHIGAN

CITY           SKY/WX    TMP DP  RH WIND       PRES   REMARKS
ADRIAN         PTCLDY    34  32  92 CALM      30.10R FOG
ALMA           CLOUDY    41  40  95 CALM      30.05F FOG
ANN ARBOR      FOG       29  27  92 CALM      30.08S VSB 3/4
BAD AXE        MOCLDY    32  32 100 CALM      30.07S FOG
CARO           PTCLDY    32  31  98 CALM      30.07R
DETROIT CITY   PTCLDY    39  35  86 CALM      30.09S
DETROIT        MOCLDY    38  35  89 S3        30.09S
FLINT          PTCLDY    36  33  89 CALM      30.08R
GROSSE ILE     PTCLDY    39  36  87 CALM      30.08S
HILLSDALE      CLEAR     36  36  99 CALM      30.08R FOG
HOWELL         CLEAR     36  35  96 CALM      30.07S

CITY           SKY/WX    TMP DP  RH WIND       PRES   REMARKS
JACKSON        CLEAR     35  33  92 CALM      30.08R
LAMBERTVILLE   PTCLDY    36  34  93 CALM      30.10S FOG
LANSING        CLOUDY    41  38  89 CALM      30.07R
LAPEER         FAIR      32  32  99 CALM      30.07F
MASON          PTCLDY    37  35  95 S5        30.07R FOG     WCI  33
MONROE         PTCLDY    34  34 100 CALM      30.08S FOG
MT. CLEMENS    PTCLDY    36  36  99 CALM      30.06S
PONTIAC        MOCLDY    36  34  92 CALM      30.07S
PORT HOPE        N/A     42  37  82 SW8       30.04S
PORT HURON     PTCLDY    32  32 100 CALM      30.08F FOG
TRI CITIES     MOCLDY    43  37  79 S3        30.07R
TROY           PTCLDY    39  36  87 CALM      30.09F
SAGINAW HB     CLOUDY    39  39 100 S5        30.06S
$$
MIZ043>046-050>051-056>058-064>065-071>073-077>080-241200-
SOUTHWEST LOWER MICHIGAN

CITY           SKY/WX    TMP DP  RH WIND       PRES   REMARKS
BATTLE CREEK   CLOUDY    46  41  82 S6        30.07S
BENTON HARBOR  CLOUDY    50  44  80 CALM      30.05F
BIG RAPIDS     CLOUDY    46  46 100 CALM      30.02F
COLDWATER      MOCLDY    43  40  89 CALM      30.08S
FREMONT        CLOUDY    48  46  93 CALM      30.03S
HOLLAND        CLOUDY    50  45  83 S5        30.05S
GRAND RAPIDS   CLOUDY    47  42  83 S3        30.05F
IONIA          CLOUDY    42  41  95 CALM      30.04F FOG
KALAMAZOO      CLOUDY    48  43  82 S3        30.07S HAZE
LUDINGTON      CLOUDY    52  49  92 CALM      30.03R
MARSHALL       CLOUDY    40  38  94 CALM      30.07S
MOUNT PLEASANT CLOUDY    43  42  95 CALM      30.03F
MUSKEGON       CLOUDY    56  47  71 W6        30.03F
SOUTH HAVEN    CLOUDY    54  47  78 SW3       30.05S
$$
MIZ016>042-241200-
NORTHERN LOWER MICHIGAN

CITY           SKY/WX    TMP DP  RH WIND       PRES   REMARKS
ALPENA         CLOUDY    39  38  96 S3        30.03F
BEAVER ISLAND  CLOUDY    51  50  95 SW6       29.99F
BELLAIRE       CLOUDY    48  45  89 CALM      30.01F
CADILLAC       CLOUDY    45  44  96 CALM      30.01F
CHARLEVOIX     CLOUDY    50  46  86 S3        30.03S
FRANKFORT      CLOUDY    51  49  90 CALM      30.01S FOG
GAYLORD        CLOUDY    45  40  82 S3        30.01F
GRAYLING       CLOUDY    42  40  94 CALM      30.02F
HARBOR SPRINGS CLOUDY    45  42  89 CALM      30.00F
HOUGHTON LAKE  CLOUDY    40  39  97 CALM      30.03F
OSCODA         CLOUDY    38  37  96 CALM      30.05S
PELLSTON       CLOUDY    43  40  89 CALM      30.01F
TRAVERSE CITY  CLOUDY    51  44  77 CALM      30.00F
$$
MIZ007>008-015-241200-
EASTERN UPPER MICHIGAN

CITY           SKY/WX    TMP DP  RH WIND       PRES   REMARKS
KINROSS        CLOUDY    45  43  93 SE3       30.00R
MACKINAC ISLAN CLOUDY    48  43  82 S6        30.00S
NEWBERRY       CLOUDY    47  47  97 SW5       29.98S FOG
S. S. MARIE    CLOUDY    43  41  93 CALM      29.99F FOG
$$
MIZ004>006-011>014-085-241200-
CENTRAL UPPER MICHIGAN

CITY           SKY/WX    TMP DP  RH WIND       PRES   REMARKS
MANISTIQUE     CLOUDY    48  47  99 CALM      29.98F FOG
ESCANABA       CLOUDY    46  45  93 W7        29.99S
MENOMINEE      CLOUDY    46  45  93 W3        30.00S
SAWYER-GWINN   FOG       43  41  93 SW6       29.98R VSB 1
$$
MIZ001>003-009>011-084-241200-
WESTERN UPPER MICHIGAN

CITY           SKY/WX    TMP DP  RH WIND       PRES   REMARKS
IRON MOUNTAIN  CLOUDY    44  43  96 W3        29.98S FOG
HOUGHTON       FOG       45  43  93 S5        29.93F VSB<1/4
COPPER HARBOR    N/A     47  45  93 VRB6      29.94F
IRONWOOD       MOCLDY    46  45  93 S5        29.92F
$$

ABBREVIATIONS USED IN REMARKS
   TC - TEMPERATURE IN CELSIUS
  WCI - WIND CHILL INDEX
   HX - HEAT INDEX
  VSB - VISIBILITY




USA.gov is the U.S. government's official web portal to all federal, state and local government web resources and services.